Location: Sumter
(33.9203°N, 80.3401°W)
Time: 10:35:19
(UTC+00:00)

X-37B - Visible Passes

Search period start: 09 August 2022 00:00
Search period end: 19 August 2022 00:00
Orbit: 328 x 343 km, 45.0° (Epoch: 27 July)

Date Brightness Start Highest point End Pass type
(mag) Time Alt. Az. Time Alt. Az. Time Alt. Az.
09 Aug 3.3 08:32:26 13° N 08:32:26 13° N 08:33:35 10° NNE visible
12 Aug 3.4 09:33:28 10° NNW 09:34:57 13° NNE 09:36:26 10° NE visible
13 Aug 2.8 09:53:21 10° NNW 09:55:43 22° NNE 09:58:05 10° ENE visible
14 Aug 3.4 08:39:22 11° N 08:40:23 13° NNE 08:41:51 10° NE visible
14 Aug 1.1 10:13:28 10° NW 10:16:19 55° NNE 10:19:09 10° ESE visible
15 Aug 2.8 08:59:30 14° NNW 09:01:09 22° NNE 09:03:30 10° ENE visible
16 Aug 1.0 09:20:00 20° NW 09:21:45 54° NNE 09:24:35 10° ESE visible
17 Aug 0.7 09:40:53 24° W 09:42:10 41° SW 09:44:54 10° SE visible
18 Aug 2.3 10:02:12 13° SW 10:02:24 13° SW 10:03:48 10° SSW visible
